Date String (YYYY-MM-DD hh:mm:ss) UTC,Instrument flags,absolute air pressure of the measurement (hPa),sample flow rate (lpm),inlet stack bypass flow (lpm),air temperature of the measurement (°C),ambient temperature measured by the external sensor (°C),aerosol sample conditioner tube jacket temperature (°C),OPC LED temperature (°C),internal box temperature (°C),relative humidity of the measurement (%),span deviation,mass concentration of particles derived from Lorenz-Mie calculation of OPC scattering (μg/m³),mass concentration of particles derived from Lorenz-Mie calculation of OPC scattering (μg/m³),mass concentration of particles derived from Lorenz-Mie calculation of OPC scattering (μg/m³)
DateTimeUTC,F1_M11,P_M11,Q1_M11,Q2_M11,T1_M11,T2_M11,T3_M11,T4_M11,T5_M11,U1_M11,ZSPAN_M11,X2_M11,X0_M11,X1_M11
2023-06-18 11:00:00,SystemResetWarning,0827.0,5.00,000.00,030.2,028.4,000.0,038.8,031.6,15.4,0000.0,0003.83,0006.54,0003.44
2023-06-18 11:01:00,SystemResetWarning,0827.0,4.99,000.00,030.1,028.4,000.0,038.8,031.6,15.4,0000.0,0003.80,0006.51,0003.43
2023-06-18 11:02:00,SystemResetWarning,0826.9,5.00,000.00,030.1,028.4,000.0,038.8,031.6,15.3,0000.0,0003.78,0006.42,0003.42
2023-06-18 11:03:00,SystemResetWarning,0827.0,5.00,000.00,030.1,028.3,000.0,038.8,031.6,15.5,0000.0,0003.79,0006.53,0003.42
2023-06-18 11:04:00,SystemResetWarning,0827.0,5.00,000.00,030.1,028.3,000.0,038.8,031.5,15.1,0000.0,0003.78,0006.50,0003.43
2023-06-18 11:05:00,SystemResetWarning,0827.0,5.00,000.00,030.1,028.3,000.0,038.8,031.5,16.2,0000.0,0003.78,0006.49,0003.43
2023-06-18 11:06:00,SystemResetWarning,0827.0,5.00,000.00,030.1,028.3,000.0,038.8,031.5,16.9,0000.0,0003.77,0006.13,0003.43
2023-06-18 11:07:00,SystemResetWarning,0827.1,5.00,000.00,030.1,028.3,000.0,038.8,031.5,16.8,0000.0,0003.74,0005.82,0003.43
2023-06-18 11:08:00,SystemResetWarning,0827.0,5.00,000.00,030.1,028.4,000.0,038.8,031.6,16.6,0000.0,0003.74,0005.98,0003.44
2023-06-18 11:09:00,SystemResetWarning,0827.0,5.00,000.00,030.1,028.4,000.0,038.7,031.6,16.3,0000.0,0003.73,0006.03,0003.45
2023-06-18 11:10:00,SystemResetWarning,0827.0,5.00,000.00,030.1,028.4,000.0,038.7,031.6,16.0,0000.0,0003.75,0006.99,0003.46
2023-06-18 11:11:00,SystemResetWarning,0827.0,5.01,000.00,030.1,028.4,000.0,038.7,031.6,16.1,0000.0,0003.77,0007.04,0003.47
2023-06-18 11:12:00,SystemResetWarning,0827.0,5.01,000.00,030.1,028.4,000.0,038.7,031.5,15.3,0000.0,0003.77,0006.93,0003.49
2023-06-18 11:13:00,SystemResetWarning,0827.0,5.00,000.00,030.1,028.4,000.0,038.7,031.6,15.4,0000.0,0003.77,0007.07,0003.49
2023-06-18 11:14:00,SystemResetWarning,0827.0,4.99,000.00,030.1,028.4,000.0,038.7,031.6,15.5,0000.0,0003.77,0007.05,0003.48
2023-06-18 11:15:00,SystemResetWarning,0826.9,5.00,000.00,030.1,028.4,000.0,038.7,031.5,15.5,0000.0,0003.77,0007.00,0003.48
2023-06-18 11:16:00,SystemResetWarning,0826.9,5.01,000.00,030.1,028.4,000.0,038.7,031.6,15.7,0000.0,0003.79,0007.10,0003.48
2023-06-18 11:17:00,SystemResetWarning,0826.9,5.01,000.00,030.1,028.4,000.0,038.7,031.6,15.9,0000.0,0003.82,0007.53,0003.48
2023-06-18 11:18:00,SystemResetWarning,0826.9,5.00,000.00,030.1,028.4,000.0,038.7,031.6,16.0,0000.0,0003.86,0008.06,0003.48
2023-06-18 11:19:00,SystemResetWarning,0826.9,5.00,000.00,030.1,028.4,000.0,038.7,031.6,15.5,0000.0,0003.84,0008.67,0003.48
2023-06-18 11:20:00,SystemResetWarning,0826.9,5.00,000.00,030.1,028.4,000.0,038.7,031.6,15.7,0000.0,0003.82,0008.52,0003.47
2023-06-18 11:21:00,SystemResetWarning,0826.9,5.00,000.00,030.1,028.4,000.0,038.7,031.6,15.5,0000.0,0003.80,0008.10,0003.46
2023-06-18 11:22:00,SystemResetWarning,0826.9,5.00,000.00,030.1,028.4,000.0,038.7,031.6,15.4,0000.0,0003.78,0007.91,0003.45
2023-06-18 11:23:00,SystemResetWarning,0826.9,4.99,000.00,030.1,028.4,000.0,038.7,031.6,15.4,0000.0,0003.80,0008.56,0003.45
2023-06-18 11:24:00,SystemResetWarning,0826.9,5.01,000.00,030.1,028.4,000.0,038.7,031.6,15.5,0000.0,0003.81,0008.91,0003.45
2023-06-18 11:25:00,SystemResetWarning,0826.8,5.01,000.00,030.1,028.4,000.0,038.7,031.6,15.5,0000.0,0003.82,0008.92,0003.45
2023-06-18 11:26:00,SystemResetWarning,0826.8,5.01,000.00,030.1,028.4,000.0,038.7,031.6,15.4,0000.0,0003.84,0008.96,0003.45
2023-06-18 11:27:00,SystemResetWarning,0826.8,4.99,000.00,030.1,028.4,000.0,038.8,031.6,15.3,0000.0,0003.85,0008.98,0003.43
2023-06-18 11:28:00,SystemResetWarning,0826.8,4.99,000.00,030.1,028.3,000.0,038.7,031.5,14.8,0000.0,0003.83,0008.68,0003.44
2023-06-18 11:29:00,SystemResetWarning,0826.8,4.99,000.00,030.1,028.3,000.0,038.7,031.5,14.8,0000.0,0003.80,0008.31,0003.43
2023-06-18 11:30:00,SystemResetWarning,0826.8,5.00,000.00,030.1,028.3,000.0,038.7,031.5,14.7,0000.0,0003.80,0007.60,0003.43
2023-06-18 11:31:00,SystemResetWarning,0826.8,5.00,000.00,030.1,028.3,000.0,038.7,031.5,14.7,0000.0,0003.84,0007.70,0003.45
2023-06-18 11:32:00,SystemResetWarning,0826.8,5.00,000.00,030.1,028.3,000.0,038.7,031.5,15.0,0000.0,0003.85,0007.75,0003.46
2023-06-18 11:33:00,SystemResetWarning,0826.8,5.00,000.00,030.1,028.3,000.0,038.7,031.4,15.0,0000.0,0003.85,0007.77,0003.46
2023-06-18 11:34:00,SystemResetWarning,0826.8,5.00,000.00,030.1,028.3,000.0,038.7,031.4,15.1,0000.0,0003.84,0006.94,0003.45
2023-06-18 11:35:00,SystemResetWarning,0826.8,5.00,000.00,030.0,028.2,000.0,038.7,031.4,15.0,0000.0,0003.86,0006.43,0003.46
2023-06-18 11:36:00,SystemResetWarning,0826.8,4.99,000.00,030.0,028.2,000.0,038.7,031.4,15.1,0000.0,0003.86,0006.47,0003.47
2023-06-18 11:37:00,SystemResetWarning,0826.8,5.00,000.00,030.0,028.2,000.0,038.7,031.4,15.0,0000.0,0003.84,0006.39,0003.47
2023-06-18 11:38:00,SystemResetWarning,0826.8,4.99,000.00,030.0,028.2,000.0,038.7,031.3,16.0,0000.0,0003.83,0006.33,0003.48
2023-06-18 11:39:00,SystemResetWarning,0826.8,5.00,000.00,030.0,028.2,000.0,038.7,031.4,16.5,0000.0,0003.85,0006.41,0003.48
2023-06-18 11:40:00,SystemResetWarning,0826.8,5.01,000.00,030.0,028.2,000.0,038.7,031.4,16.0,0000.0,0003.87,0006.89,0003.49
2023-06-18 11:41:00,SystemResetWarning,0826.9,5.01,000.00,030.0,028.2,000.0,038.7,031.4,15.9,0000.0,0003.86,0007.22,0003.49
2023-06-18 11:42:00,SystemResetWarning,0826.8,4.99,000.00,030.0,028.2,000.0,038.7,031.4,16.1,0000.0,0003.85,0007.17,0003.49
2023-06-18 11:43:00,SystemResetWarning,0826.8,4.99,000.00,030.0,028.3,000.0,038.7,031.4,15.8,0000.0,0003.86,0007.25,0003.49
2023-06-18 11:44:00,SystemResetWarning,0826.9,4.99,000.00,030.0,028.3,000.0,038.7,031.4,15.9,0000.0,0003.87,0007.42,0003.48
2023-06-18 11:45:00,SystemResetWarning,0826.9,5.01,000.00,030.0,028.3,000.0,038.7,031.5,16.6,0000.0,0003.84,0007.34,0003.47
2023-06-18 11:46:00,SystemResetWarning,0826.9,5.01,000.00,030.0,028.3,000.0,038.7,031.5,16.3,0000.0,0003.82,0007.42,0003.47
2023-06-18 11:47:00,SystemResetWarning,0826.9,5.01,000.00,030.0,028.3,000.0,038.7,031.5,16.7,0000.0,0003.83,0007.49,0003.47
2023-06-18 11:48:00,SystemResetWarning,0826.9,5.00,000.00,030.0,028.3,000.0,038.7,031.5,16.5,0000.0,0003.83,0007.50,0003.47
2023-06-18 11:49:00,SystemResetWarning,0827.0,5.00,000.00,030.0,028.3,000.0,038.7,031.5,16.0,0000.0,0003.82,0007.51,0003.47
2023-06-18 11:50:00,SystemResetWarning,0826.8,5.00,000.00,030.1,028.3,000.0,038.7,031.5,15.9,0000.0,0003.82,0007.48,0003.48
2023-06-18 11:51:00,SystemResetWarning,0826.9,4.99,000.00,030.1,028.4,000.0,038.7,031.5,16.1,0000.0,0003.82,0007.07,0003.48
2023-06-18 11:52:00,SystemResetWarning,0826.9,5.00,000.00,030.1,028.4,000.0,038.7,031.6,16.5,0000.0,0003.84,0006.57,0003.49
2023-06-18 11:53:00,SystemResetWarning,0827.0,5.00,000.00,030.1,028.4,000.0,038.7,031.5,16.0,0000.0,0003.84,0006.56,0003.49
2023-06-18 11:54:00,SystemResetWarning,0827.0,5.00,000.00,030.1,028.4,000.0,038.7,031.5,16.0,0000.0,0003.86,0006.50,0003.49
2023-06-18 11:55:00,SystemResetWarning,0826.9,5.00,000.00,030.1,028.4,000.0,038.7,031.5,16.3,0000.0,0003.86,0006.26,0003.51
2023-06-18 11:56:00,SystemResetWarning,0826.9,5.00,000.00,030.1,028.4,000.0,038.7,031.6,16.5,0000.0,0003.90,0006.42,0003.52
2023-06-18 11:57:00,SystemResetWarning,0826.9,5.00,000.00,030.1,028.4,000.0,038.7,031.6,16.0,0000.0,0003.92,0006.32,0003.53
2023-06-18 11:58:00,SystemResetWarning,0826.9,5.00,000.00,030.1,028.4,000.0,038.7,031.6,16.1,0000.0,0003.91,0006.14,0003.53
2023-06-18 11:59:00,SystemResetWarning,0826.9,5.00,000.00,030.1,028.4,000.0,038.7,031.6,15.7,0000.0,0003.95,0006.41,0003.55
